[[{"header":{"parameterUnit":"m.s-1","parameterCategory":1,"la1":30.2991,"la2":30.254,"lo1":-89.0895,"lo2":-89.0444,"dy":0.0017,"dx":0.0017,"nx":28,"ny":28,"refTime":"2023-07-21T03:00:00:Z","depth":0,"parameterNumber":2,"parameterNumberName":"U-component_of_WINDS"},"data":[0,0,0,0,0,0,0,0,0,0,0,0,0,0,0,0,0,0,0,0,0,0,0,0,0,0,0,0,0,0,0,0,0,0,0,0,0,0,0,0,0,0,0,0,0,0,0,0,0,0,0,0,0,0,0,0,0,0,4.119,4.1191,0,4.1337,4.1339,4.1341,4.1324,4.1322,4.1319,4.1317,4.1468,4.1474,4.1481,0,0,0,0,0,0,0,0,0,0,0,0,0,4.0894,4.0899,4.119,4.1192,4.1193,4.1337,4.1339,4.1341,4.1325,4.1322,4.1319,4.1316,4.1466,4.1474,4.1481,0,0,0,0,0,0,0,0,0,0,0,0,0,4.103,4.0901,4.1189,4.1202,4.1205,4.1337,4.1339,4.1342,4.1325,4.1322,4.1318,4.1315,4.1464,4.1473,4.1482,4.161,0,0,4.1511,4.1515,0,0,0,0,0,0,0,0,4.1022,4.1041,4.1199,4.1202,4.1205,4.1309,4.129,4.1432,4.1326,4.128,4.1317,4.1313,4.1418,4.1431,4.1466,4.1617,4.1624,4.1511,4.1517,4.1521,4.1524,0,0,0,0,0,0,0,4.1013,4.1034,4.1248,4.1201,4.1205,4.1201,4.1216,4.1317,4.1367,4.1283,4.1282,4.13,4.1419,4.1457,4.147,4.1626,4.1511,4.1519,4.1525,4.1529,4.1889,4.1893,0,0,0,0,0,0,4.1,4.1027,4.1243,4.1252,4.1103,4.1209,4.1226,4.1279,4.1366,4.1375,4.1303,4.1299,4.1443,4.1459,4.1475,4.163,4.1521,4.153,4.1535,4.1885,4.189,4.1894,0,0,0,0,0,0,4.0994,4.102,4.1237,4.1139,4.1167,4.1218,4.1277,4.1284,4.1322,4.1381,4.1389,4.1333,4.1441,4.1462,4.1577,4.1635,4.1534,4.1542,4.188,4.1886,4.1892,4.1942,0,0,0,0,0,0,4.0985,4.1017,4.1067,4.1141,4.1172,4.1337,4.1281,4.1289,4.1338,4.1334,4.1411,4.142,4.144,4.1563,4.1586,4.1646,4.155,4.1875,4.1883,4.189,4.1935,4.1949,4.196,0,0,0,0,0,4.0975,4.1075,4.1069,4.1095,4.1235,4.134,4.1358,4.1378,4.1343,4.1393,4.143,4.1418,4.1625,4.1575,4.16,4.1664,4.1872,4.1881,4.1889,4.1929,4.1946,4.196,0,0,0,0,0,0,4.1006,4.1085,4.1079,4.1206,4.1267,4.1337,4.14,4.1395,4.1467,4.146,4.1483,4.15,4.1616,4.1652,4.1594,4.1793,4.1744,4.1758,4.1765,4.1781,4.1794,4.1782,4.1557,0,0,0,0,0,4.1028,4.1107,4.1171,4.1277,4.1308,4.1349,4.1396,4.1406,4.147,4.1495,4.1541,4.1603,4.1682,4.1734,4.181,4.194,4.1957,4.1997,4.201,4.202,4.2032,4.2103,4.2122,4.1923,4.1923,4.1923,0,0,4.1074,4.1126,4.1175,4.1285,4.1333,4.1414,4.137,4.1458,4.1519,4.1508,4.1619,4.1655,4.1726,4.1849,4.1906,4.1882,4.209,4.2031,4.2039,4.2045,4.2114,4.2133,4.2149,4.1929,4.1928,4.1927,0,0,4.1198,4.1246,4.1339,4.1388,4.1461,4.1488,4.1511,4.1582,4.1606,4.1717,4.1711,4.1784,4.1919,4.197,4.2013,4.2157,4.2148,4.2182,4.2247,4.2316,4.2332,4.2346,4.2397,4.2415,4.2194,4.2194,4.2194,0,4.1245,4.1368,4.1388,4.1477,4.1525,4.1519,4.1614,4.166,4.1755,4.1788,4.1761,4.1932,4.1979,4.2113,4.2148,4.2184,4.221,4.2172,4.2328,4.2342,4.2356,4.2404,4.2423,4.2197,4.2197,4.2196,4.2196,0,4.1422,4.1507,4.1573,4.1664,4.172,4.1812,4.1845,4.19,4.1906,4.1935,4.2049,4.2106,4.2193,4.2226,4.2233,4.2362,4.2345,4.2323,4.2274,4.2378,4.2424,4.2442,4.2202,4.2201,4.22,4.2199,0,0,4.157,4.1671,4.1695,4.1736,4.1817,4.1883,4.1974,4.2059,4.2105,4.217,4.2247,4.2362,4.2342,4.2392,4.2404,4.2465,4.2574,4.2435,4.2437,4.2459,4.2719,4.2735,4.2756,4.2569,4.2573,4.2576,4.2713,0,4.1702,4.1862,4.1883,4.2026,4.2104,4.21,4.2179,4.2237,4.2268,4.2338,4.2372,4.2453,4.2421,4.2451,4.2511,4.2548,4.2627,4.2539,4.264,4.2644,4.2622,4.278,4.2797,4.2924,4.2731,4.2734,4.2737,0,4.1877,4.1947,4.2097,4.2167,4.22,4.2271,4.2351,4.2419,4.2484,4.2502,4.2557,4.2562,4.2656,4.2604,4.2733,4.2673,4.2716,4.2741,4.2746,4.2756,4.2696,4.2793,4.2965,4.2983,4.2765,4.2763,4.2761,0,4.1969,4.2101,4.2208,4.2243,4.2327,4.2377,4.2414,4.2476,4.2526,4.2596,4.2628,4.2708,4.2752,4.2814,4.284,4.28,4.2968,4.2918,4.2985,4.2984,4.302,4.3017,4.32,4.3049,4.3049,4.3048,4.3048,0,4.2114,4.2206,4.225,4.2316,4.2419,4.2442,4.2543,4.2578,4.2634,4.2706,4.2708,4.2776,4.2806,4.2879,4.29,4.3004,4.3024,4.3041,4.3045,4.304,4.3038,4.3068,4.3059,4.3054,4.3052,4.3051,4.3051,0,4.2233,4.2267,4.2383,4.2453,4.2473,4.2545,4.2605,4.2669,4.2698,4.279,4.2813,4.2859,4.2945,4.2977,4.3082,4.3096,4.3216,4.3214,4.3194,4.3195,4.3259,4.3253,4.3467,4.3496,4.3327,4.3329,4.333,0,4.2323,4.2394,4.2471,4.252,4.2558,4.2637,4.2687,4.2713,4.2766,4.2846,4.29,4.2985,4.3055,4.3192,4.3235,4.3315,4.3314,4.3384,4.3326,4.3319,4.3314,4.3309,4.3316,4.3394,4.3396,4.3397,4.3398,0,4.2479,4.2492,4.2565,4.2644,4.2704,4.2768,4.283,4.287,4.2904,4.2964,4.3051,4.3105,4.3212,4.3296,4.3378,4.3417,4.3414,4.3416,4.3436,4.3431,4.3416,4.3424,4.3222,4.3411,4.341,4.3409,4.3408,4.3407,4.2586,4.2648,4.2712,4.2793,4.2843,4.29,4.2963,4.3001,4.3074,4.3162,4.3173,4.3267,4.3331,4.3441,4.3483,4.3556,4.3538,4.3566,4.3573,4.358,4.3584,4.3405,4.3571,4.3571,4.3571,4.3571,4.357,0,4.2741,4.2782,4.2856,4.2942,4.3006,4.2998,4.3066,4.3119,4.3202,4.3262,4.333,4.343,4.3512,4.3562,4.3644,4.3694,4.3694,4.3714,4.371,4.3719,4.3596,4.3571,4.3712,4.3712,4.3712,4.3712,4.3712,4.3712,4.2829,4.2933,4.2954,4.3083,4.3123,4.3215,4.3254,4.3307,4.3355,4.3467,4.3535,4.3567,4.3623,4.3709,4.3784,4.3796,4.3826,4.3848,4.3858,4.3743,4.3728,4.3714,4.369,4.3854,4.3854,4.3975,4.3976,4.3977]},{"header":{"parameterUnit":"m.s-1","parameterCategory":1,"la1":30.2991,"la2":30.254,"lo1":-89.0895,"lo2":-89.0444,"dy":0.0017,"dx":0.0017,"nx":28,"ny":28,"refTime":"2023-07-21T03:00:00:Z","depth":0,"parameterNumber":3,"parameterNumberName":"V-component_of_WINDS"},"data":[0,0,0,0,0,0,0,0,0,0,0,0,0,0,0,0,0,0,0,0,0,0,0,0,0,0,0,0,0,0,0,0,0,0,0,0,0,0,0,0,0,0,0,0,0,0,0,0,0,0,0,0,0,0,0,0,0,0,-0.4292,-0.4292,0,-0.4269,-0.4269,-0.4269,-0.427,-0.4271,-0.4271,-0.4271,-0.4247,-0.4246,-0.4245,0,0,0,0,0,0,0,0,0,0,0,0,0,-0.4336,-0.4335,-0.4292,-0.4292,-0.4292,-0.4269,-0.4269,-0.4269,-0.427,-0.4271,-0.4271,-0.4271,-0.4247,-0.4246,-0.4245,0,0,0,0,0,0,0,0,0,0,0,0,0,-0.4315,-0.4335,-0.4292,-0.429,-0.4289,-0.4269,-0.4269,-0.4269,-0.427,-0.4271,-0.4271,-0.4272,-0.4247,-0.4246,-0.4245,-0.4226,0,0,-0.424,-0.4239,0,0,0,0,0,0,0,0,-0.4316,-0.4314,-0.429,-0.429,-0.4289,-0.4273,-0.4275,-0.4254,-0.427,-0.4277,-0.4271,-0.4272,-0.4255,-0.4253,-0.4248,-0.4224,-0.4223,-0.424,-0.4239,-0.4238,-0.4238,0,0,0,0,0,0,0,-0.4318,-0.4315,-0.4283,-0.429,-0.4289,-0.4289,-0.4287,-0.4271,-0.4264,-0.4277,-0.4277,-0.4274,-0.4255,-0.4249,-0.4247,-0.4223,-0.424,-0.4239,-0.4238,-0.4237,-0.4183,-0.4182,0,0,0,0,0,0,-0.432,-0.4316,-0.4284,-0.4282,-0.4304,-0.4288,-0.4285,-0.4278,-0.4264,-0.4262,-0.4274,-0.4274,-0.4251,-0.4249,-0.4246,-0.4223,-0.4238,-0.4237,-0.4236,-0.4183,-0.4183,-0.4182,0,0,0,0,0,0,-0.4321,-0.4317,-0.4285,-0.4299,-0.4295,-0.4287,-0.4278,-0.4277,-0.4271,-0.4261,-0.426,-0.4269,-0.4251,-0.4248,-0.4231,-0.4222,-0.4236,-0.4235,-0.4184,-0.4183,-0.4182,-0.4175,0,0,0,0,0,0,-0.4322,-0.4317,-0.431,-0.4299,-0.4294,-0.427,-0.4278,-0.4276,-0.4269,-0.4269,-0.4257,-0.4255,-0.4252,-0.4233,-0.4229,-0.422,-0.4234,-0.4185,-0.4184,-0.4183,-0.4176,-0.4174,-0.4173,0,0,0,0,0,-0.4324,-0.4309,-0.431,-0.4306,-0.4285,-0.4269,-0.4267,-0.4263,-0.4268,-0.4261,-0.4255,-0.4256,-0.4224,-0.4231,-0.4227,-0.4217,-0.4185,-0.4184,-0.4183,-0.4177,-0.4175,-0.4173,0,0,0,0,0,0,-0.4319,-0.4308,-0.4308,-0.429,-0.4281,-0.427,-0.426,-0.4261,-0.425,-0.425,-0.4246,-0.4243,-0.4226,-0.422,-0.4228,-0.4198,-0.4205,-0.4203,-0.4202,-0.42,-0.4198,-0.4199,-0.4233,0,0,0,0,0,-0.4316,-0.4305,-0.4295,-0.4279,-0.4275,-0.4268,-0.4261,-0.4259,-0.425,-0.4246,-0.4238,-0.4228,-0.4216,-0.4208,-0.4196,-0.4176,-0.4173,-0.4167,-0.4165,-0.4164,-0.4162,-0.415,-0.4148,-0.4178,-0.4178,-0.4178,0,0,-0.4309,-0.4302,-0.4295,-0.4278,-0.4271,-0.4259,-0.4265,-0.4252,-0.4242,-0.4243,-0.4226,-0.4221,-0.4209,-0.419,-0.4182,-0.4185,-0.4153,-0.4162,-0.4161,-0.416,-0.4149,-0.4146,-0.4143,-0.4177,-0.4177,-0.4177,0,0,-0.4291,-0.4284,-0.427,-0.4263,-0.4252,-0.4248,-0.4244,-0.4233,-0.423,-0.4213,-0.4213,-0.4202,-0.4181,-0.4173,-0.4166,-0.4145,-0.4145,-0.4141,-0.4131,-0.412,-0.4117,-0.4115,-0.4107,-0.4104,-0.4139,-0.4139,-0.4139,0,-0.4284,-0.4266,-0.4263,-0.425,-0.4242,-0.4243,-0.4229,-0.4222,-0.4207,-0.4202,-0.4206,-0.418,-0.4172,-0.4151,-0.4146,-0.4141,-0.4136,-0.4142,-0.4118,-0.4116,-0.4114,-0.4106,-0.4103,-0.4138,-0.4138,-0.4139,-0.4139,0,-0.4257,-0.4244,-0.4235,-0.4221,-0.4212,-0.4199,-0.4194,-0.4185,-0.4184,-0.418,-0.4162,-0.4154,-0.414,-0.4135,-0.4134,-0.4114,-0.4116,-0.4119,-0.4126,-0.4111,-0.4103,-0.41,-0.4138,-0.4138,-0.4138,-0.4138,0,0,-0.4234,-0.422,-0.4216,-0.421,-0.4198,-0.4188,-0.4174,-0.4161,-0.4154,-0.4144,-0.4132,-0.4114,-0.4117,-0.4109,-0.4107,-0.4098,-0.4081,-0.4102,-0.4102,-0.4098,-0.4058,-0.4054,-0.4051,-0.4081,-0.4081,-0.408,-0.4058,0,-0.4214,-0.4189,-0.4187,-0.4165,-0.4153,-0.4154,-0.4142,-0.4133,-0.4129,-0.4118,-0.4112,-0.41,-0.4105,-0.41,-0.4091,-0.4085,-0.4072,-0.4086,-0.4069,-0.4069,-0.4071,-0.4047,-0.4044,-0.4023,-0.4055,-0.4055,-0.4054,0,-0.4186,-0.4176,-0.4153,-0.4143,-0.4138,-0.4127,-0.4115,-0.4104,-0.4094,-0.4092,-0.4083,-0.4082,-0.4068,-0.4076,-0.4056,-0.4065,-0.4058,-0.4054,-0.4053,-0.4051,-0.406,-0.4043,-0.4017,-0.4013,-0.405,-0.405,-0.4051,0,-0.4171,-0.4152,-0.4135,-0.413,-0.4118,-0.411,-0.4104,-0.4095,-0.4087,-0.4077,-0.4071,-0.4059,-0.4052,-0.4043,-0.4038,-0.4045,-0.4018,-0.4026,-0.4015,-0.4015,-0.4008,-0.4008,-0.3979,-0.4005,-0.4005,-0.4005,-0.4006,0,-0.4148,-0.4134,-0.4128,-0.4118,-0.4102,-0.4099,-0.4083,-0.4078,-0.407,-0.4058,-0.4059,-0.4048,-0.4043,-0.4032,-0.4029,-0.4012,-0.4009,-0.4006,-0.4005,-0.4005,-0.4006,-0.4,-0.4001,-0.4005,-0.4005,-0.4005,-0.4005,0,-0.4128,-0.4123,-0.4106,-0.4096,-0.4093,-0.4081,-0.4073,-0.4063,-0.4058,-0.4044,-0.404,-0.4034,-0.402,-0.4015,-0.3999,-0.3997,-0.3977,-0.3978,-0.398,-0.398,-0.3969,-0.397,-0.3934,-0.3929,-0.3959,-0.3959,-0.3959,0,-0.4113,-0.4102,-0.4091,-0.4083,-0.4078,-0.4066,-0.4058,-0.4055,-0.4046,-0.4034,-0.4026,-0.4013,-0.4002,-0.398,-0.3973,-0.3961,-0.3961,-0.3949,-0.3959,-0.3959,-0.3959,-0.396,-0.3958,-0.3947,-0.3947,-0.3946,-0.3946,0,-0.4087,-0.4085,-0.4074,-0.4062,-0.4053,-0.4043,-0.4034,-0.4028,-0.4023,-0.4014,-0.4,-0.3992,-0.3975,-0.3962,-0.3949,-0.3943,-0.3943,-0.3944,-0.394,-0.394,-0.3941,-0.3939,-0.3975,-0.3944,-0.3944,-0.3944,-0.3945,-0.3945,-0.4068,-0.4058,-0.4049,-0.4036,-0.4029,-0.402,-0.401,-0.4005,-0.3994,-0.398,-0.3979,-0.3964,-0.3954,-0.3937,-0.3931,-0.3919,-0.3922,-0.3917,-0.3916,-0.3915,-0.3913,-0.3944,-0.3917,-0.3917,-0.3917,-0.3917,-0.3917,0,-0.4041,-0.4035,-0.4024,-0.4011,-0.4001,-0.4003,-0.3993,-0.3984,-0.3971,-0.3962,-0.3952,-0.3936,-0.3923,-0.3916,-0.3903,-0.3895,-0.3895,-0.3891,-0.3891,-0.389,-0.3912,-0.3916,-0.3891,-0.3891,-0.3891,-0.3891,-0.3891,-0.3891,-0.4026,-0.4009,-0.4006,-0.3986,-0.398,-0.3966,-0.396,-0.3952,-0.3944,-0.3927,-0.3916,-0.3912,-0.3903,-0.389,-0.3878,-0.3876,-0.3871,-0.3867,-0.3865,-0.3886,-0.3888,-0.3891,-0.3894,-0.3866,-0.3866,-0.3844,-0.3844,-0.3844]}]]